Terug naar catalogus

FLOCK 4H 27

ActiefWetenschapSSO
NORAD 66730·PAYLOAD·🇺🇸 United States

Gelanceerd Nov 28, 2025 vanaf Vandenberg Space Force Base

Loading…

Volgende Passages (komende 24 uur)

TLE

VersSource: CelesTrak SupGP

Epoch: Sep 14, 2026, 06:45 UTC

1 66730C 25276BS  26257.28133102  .00007689  00000+0  34343-3 0  2572
2 66730  97.4098 329.5090 0001861  79.5230 330.9366 15.21419912    17

Volg FLOCK 4H 27 in realtime met AllMySat

Download on the App Store